Belmar-Farmingdale, NJ

8:08 AM EST on December 15, 2019 (GMT -0500)
Allaire

Weather History for KBLM - November, 2019

Change the Weather History Date:

Tuesday, November 12, 2019

  Actual Average Record
Temperature  
Mean Temperature 40 °F -  
Max Temperature 57 °F 51 °F 66 °F (2014)
Min Temperature 24 °F 36 °F 26 °F (2001)
Degree Days  
Heating Degree Days 24    
Moisture  
Dew Point 30 °F    
Average Humidity 69    
Maximum Humidity 92    
Minimum Humidity 35    
Precipitation  
Precipitation 0.03 in - - ()
Sea Level Pressure  
Sea Level Pressure 29.91 in    
Wind  
Wind Speed 12 mph ()    
Max Wind Speed 22 mph    
Max Gust Speed 33 mph    
Visibility 9.6 miles    
Events Rain , Snow    
Averages and records for this station are not official NWS values.
T = Trace of Precipitation, MM = Missing Value Source: Averaged Metar Reports

Daily Weather History Graph

Daily Weather History Graph

Search for Another Location

Airport or City:

Astronomy

Nov. 12, 2019 Rise Set
Actual Time 6:38 AM EST 4:42 PM EST
Civil Twilight 6:09 AM EST 5:11 PM EST
Nautical Twilight 5:36 AM EST 5:43 PM EST
Astronomical Twilight 5:04 AM EST 6:15 PM EST
Moon 5:08 PM EST (11/12) 6:27 AM EST (11/12)
Length of Visible Light 11h 01m
Length of Day
10h 04m
Full, 100% of the Moon is Illuminated
Nov 12
Full
Nov 19
Last Quarter
Nov 26
New
Dec 4
First Quarter
Dec 12
Full

Hourly Weather History & Observations

Time (EST) Temp. Windchill Dew Point Humidity Pressure Visibility Wind Dir Wind Speed Gust Speed Precip Events Conditions
12:56 AM 55.9 °F - 45.0 °F 67% 29.79 in 10.0 mi SSW 10.4 mph 18.4 mph N/A   Clear
1:56 AM 57.0 °F - 43.0 °F 59% 29.77 in 10.0 mi South 10.4 mph 16.1 mph N/A   Clear
2:56 AM 57.0 °F - 41.0 °F 55% 29.74 in 10.0 mi SSW 10.4 mph - N/A   Clear
3:56 AM 57.0 °F - 41.0 °F 55% 29.73 in 10.0 mi SSW 9.2 mph - N/A   Clear
4:56 AM 57.0 °F - 41.0 °F 55% 29.73 in 10.0 mi SW 9.2 mph - N/A   Clear
5:56 AM 57.0 °F - 42.1 °F 57% 29.73 in 10.0 mi SW 10.4 mph - N/A   Clear
6:56 AM 55.9 °F - 43.0 °F 62% 29.74 in 10.0 mi WSW 10.4 mph 20.7 mph 0.00 in Rain Light Rain
7:56 AM 54.0 °F - 46.0 °F 75% 29.75 in 10.0 mi West 16.1 mph 21.9 mph 0.00 in Rain Light Rain
8:56 AM 51.1 °F - 48.9 °F 92% 29.78 in 10.0 mi WSW 9.2 mph - 0.01 in Rain Light Rain
9:20 AM 46.4 °F 40.1 °F 42.8 °F 87% 29.80 in 10.0 mi WNW 15.0 mph 27.6 mph 0.01 in Rain Light Rain
9:37 AM 44.6 °F 36.9 °F 41.0 °F 87% 29.82 in 10.0 mi West 18.4 mph 23.0 mph 0.01 in Rain Light Rain
9:56 AM 43.0 °F 37.2 °F 39.9 °F 89% 29.83 in 10.0 mi West 10.4 mph - 0.01 in Rain Light Rain
10:39 AM 39.2 °F 30.8 °F 35.6 °F 87% 29.86 in 10.0 mi WNW 15.0 mph 27.6 mph 0.01 in Rain Light Rain
10:46 AM 39.2 °F 29.8 °F 35.6 °F 87% 29.87 in 10.0 mi WNW 18.4 mph 25.3 mph 0.01 in Rain Light Rain
10:56 AM 39.0 °F 29.0 °F 35.1 °F 86% 29.88 in 10.0 mi West 20.7 mph 24.2 mph 0.01 in Rain Light Rain
11:34 AM 37.4 °F 27.5 °F 30.2 °F 75% 29.90 in 10.0 mi WNW 18.4 mph 25.3 mph 0.00 in   Overcast
11:56 AM 36.0 °F 26.0 °F 32.0 °F 86% 29.91 in 10.0 mi WNW 17.3 mph 25.3 mph 0.00 in Rain Light Rain
12:21 PM 35.6 °F 27.5 °F 30.2 °F 81% 29.91 in 10.0 mi WNW 11.5 mph 24.2 mph 0.00 in Rain Light Rain
12:44 PM 33.8 °F 23.2 °F 30.2 °F 87% 29.91 in 2.5 mi NW 17.3 mph 25.3 mph 0.00 in Snow Light Snow
12:56 PM 33.1 °F 22.6 °F 30.0 °F 89% 29.92 in 4.0 mi WNW 16.1 mph 25.3 mph 0.00 in Snow Light Snow
1:26 PM 33.8 °F 25.3 °F 30.2 °F 87% 29.92 in 10.0 mi West 11.5 mph - 0.00 in Rain Light Rain
1:56 PM 33.1 °F 21.9 °F 28.0 °F 82% 29.93 in 10.0 mi WNW 18.4 mph 23.0 mph 0.00 in   Overcast
2:56 PM 33.1 °F 23.0 °F 21.9 °F 64% 29.96 in 10.0 mi WNW 15.0 mph 26.5 mph N/A   Overcast
3:56 PM 33.1 °F 22.6 °F 21.0 °F 61% 29.98 in 10.0 mi NW 16.1 mph - N/A   Overcast
4:56 PM 32.0 °F 22.1 °F 19.0 °F 59% 30.02 in 10.0 mi NW 13.8 mph - N/A   Scattered Clouds
5:56 PM 30.9 °F 21.2 °F 19.9 °F 64% 30.06 in 10.0 mi NW 12.7 mph - N/A   Clear
6:56 PM 30.0 °F 19.1 °F 18.0 °F 61% 30.09 in 10.0 mi NW 15.0 mph - N/A   Clear
7:56 PM 28.9 °F 15.4 °F 9.0 °F 43% 30.12 in 10.0 mi NW 21.9 mph 33.4 mph N/A   Clear
8:56 PM 27.0 °F 14.3 °F 6.1 °F 41% 30.14 in 10.0 mi NW 17.3 mph 25.3 mph N/A   Clear
9:56 PM 26.1 °F 12.3 °F 1.9 °F 35% 30.17 in 10.0 mi NW 19.6 mph 28.8 mph N/A   Clear
10:56 PM 24.1 °F 12.5 °F 3.0 °F 40% 30.19 in 10.0 mi NW 12.7 mph - N/A   Clear
11:56 PM 24.1 °F 11.0 °F 3.9 °F 42% 30.20 in 10.0 mi NW 16.1 mph - N/A   Clear